Regional Weather Roundup
Issued by NWS Jackson, KY

Home | Current Version | Previous Version | Graphics & Text | Print | Product List | Glossary On
Versions: 1 2 3 4 5 6 7 8 9 10 11 12 13 14 15 16 17 18 19 20 21 22 23 24 25 26 27 28 29 30 31 32 33 34 35 36 37 38 39 40 41 42 43 44 45 46 47 48 49 50
000
ASUS43 KJKL 311610
RWRJKL

EAST KENTUCKY HOURLY WEATHER ROUNDUP
NATIONAL WEATHER SERVICE JACKSON KY
1200 PM EDT MON AUG 31 2015

NOTE: "FAIR" INDICATES FEW OR NO CLOUDS BELOW 12,000 FEET WITH
NO SIGNIFICANT WEATHER AND/OR OBSTRUCTIONS TO VISIBILITY.

* THESE REPORTS ARE NOT UNDER NWS QUALITY CONTROL AND MAY NOT
  REPORT WEATHER SUCH AS PRECIPITATION AND FOG.

KYZ079-080-083-085-087-088-110-112-115-119-120-311700
...EASTERN KENTUCKY...

CITY           SKY/WX    TMP DP  RH WIND       PRES   REMARKS
JACKSON        SUNNY     79  66  64 CALM      30.19S
LONDON         SUNNY     81  63  54 NE7       30.18S
SOMERSET*      SUNNY     77  66  69 NE3       30.18S
MONTICELLO*    SUNNY     81  68  64 CALM      30.20S
WILLIAMSBURG*  PTSUNNY   75  68  78 NW5       30.18
MIDDLESBORO*   SUNNY     79  65  62 CALM      30.19S
HAZARD APT*    MOSUNNY   79  66  65 N3        30.19S
BLACK MTN*       N/A     68  61  77 N2          N/A
PIKEVILLE APT* MOSUNNY   77  68  73 N3        30.20S
BIG SANDY*     PTSUNNY   79  67  67 CALM      30.19S
MOREHEAD APT*  SUNNY     81  64  57 CALM      30.20S
$$

KYZ035-036-041-042-044-050-067-078-099-311700
...CENTRAL KENTUCKY...

CITY           SKY/WX    TMP DP  RH WIND       PRES   REMARKS
MT STERLING*   SUNNY     81  64  57 CALM      30.19F
FLEMING/MASON* CLOUDY    75  68  78 CALM      30.19
DANVILLE*      SUNNY     81  63  54 CALM      30.19S
RICHMOND*      SUNNY     79  63  57 N5        30.17F
LEXINGTON      SUNNY     81  63  54 VRB5      30.17F
FRANKFORT      SUNNY     81  63  54 SW8       30.16F
$$

KYZ091>093-OHZ055-061-077-WVZ005-015-034-035-042-311700
...SOUTHERN OHIO/WEST VIRGINIA...

CITY           SKY/WX    TMP DP  RH WIND       PRES   REMARKS
COVINGTON      MOSUNNY   82  68  62 VRB5      30.15F
COLUMBUS       MOSUNNY   82  69  64 N5        30.13S
DAYTON         MOSUNNY   82  70  66 S6        30.15S
WILMINGTON     MOSUNNY   80  67  64 SW5       30.15S
HUNTINGTON     MOSUNNY   83  64  52 E3        30.15F
CHARLESTON     MOSUNNY   83  66  56 VRB3      30.16S
PINEVILLE*     MOSUNNY   80  67  64 MISG      30.24F
BECKLEY        PTSUNNY   75  62  64 NW6       30.23S
BLUEFIELD      MOSUNNY   79  55  43 VRB5      30.25S
$$

VAZ002-007-008-TNZ017-027-036-066-071-311700
...SOUTHWEST VIRGINIA/EAST TENNESSEE...

CITY           SKY/WX    TMP DP  RH WIND       PRES   REMARKS
WISE*          MOSUNNY   75  61  60 NE9       30.25F
JONESVILLE*    MOSUNNY   77  48  36 W3        30.21S
ABINGDON*      MOSUNNY   77  59  53 N5        30.21F
BRISTOL        MOSUNNY   78  63  59 CALM      30.19S
KNOXVILLE      MOSUNNY   81  64  56 E3        30.17S
OAK RIDGE      MOSUNNY   78  64  61 SE5       30.18S
CROSSVILLE     MOSUNNY   76  61  59 VRB3      30.22R
NASHVILLE      PTSUNNY   79  64  60 CALM      30.16S
$$

...KEY TO REMARKS...
VSB - VISIBILITY IN MILES
WCI - WIND CHILL INDEX
HX  - HEAT INDEX

$$


USA.gov is the U.S. government's official web portal to all federal, state and local government web resources and services.